Time,TemperatureF,DewpointF,PressureIn,WindDirection,WindDirectionDegrees,WindSpeedMPH,WindSpeedGustMPH,Humidity,HourlyPrecipIn,Conditions,Clouds,dailyrainin,SoftwareType,DateUTC
2013-06-26 01:06:00,77.1,71.2,29.93,SW,236,0.0,1.0,82,0.00,,,0.00,Wunderground v.1.15,2013-06-26 06:06:00,
2013-06-26 01:12:00,76.9,71.0,29.93,West,259,1.0,1.0,82,0.00,,,0.00,Wunderground v.1.15,2013-06-26 06:12:00,
2013-06-26 01:18:00,76.8,71.2,29.93,SW,230,0.0,2.0,83,0.00,,,0.00,Wunderground v.1.15,2013-06-26 06:18:00,
2013-06-26 01:24:00,76.6,71.0,29.93,SW,232,0.0,3.0,83,0.00,,,0.00,Wunderground v.1.15,2013-06-26 06:24:00,
2013-06-26 01:29:00,76.5,70.9,29.93,SW,220,2.0,3.0,83,0.00,,,0.00,Wunderground v.1.15,2013-06-26 06:29:00,
2013-06-26 01:35:00,76.3,71.1,29.93,SW,226,0.0,2.0,84,0.00,,,0.00,Wunderground v.1.15,2013-06-26 06:35:00,
2013-06-26 01:40:00,76.2,71.0,29.93,WSW,253,1.0,1.0,84,0.00,,,0.00,Wunderground v.1.15,2013-06-26 06:40:00,
2013-06-26 01:46:00,76.0,70.8,29.92,SW,232,0.0,2.0,84,0.00,,,0.00,Wunderground v.1.15,2013-06-26 06:46:00,
2013-06-26 01:51:00,75.9,70.7,29.92,WSW,249,1.0,1.0,84,0.00,,,0.00,Wunderground v.1.15,2013-06-26 06:51:00,
2013-06-26 01:57:00,75.8,70.6,29.92,WSW,243,1.0,1.0,84,0.00,,,0.00,Wunderground v.1.15,2013-06-26 06:57:00,
2013-06-26 02:02:00,75.7,70.5,29.92,West,268,1.0,2.0,84,0.00,,,0.00,Wunderground v.1.15,2013-06-26 07:02:00,
2013-06-26 02:07:00,75.7,70.5,29.92,WSW,238,2.0,2.0,84,0.00,,,0.00,Wunderground v.1.15,2013-06-26 07:07:00,
2013-06-26 02:12:00,75.6,70.4,29.92,WSW,253,1.0,1.0,84,0.00,,,0.00,Wunderground v.1.15,2013-06-26 07:12:00,
2013-06-26 02:17:00,75.5,70.3,29.92,SW,236,0.0,2.0,84,0.00,,,0.00,Wunderground v.1.15,2013-06-26 07:17:00,
2013-06-26 02:22:00,75.5,70.3,29.92,SW,235,0.0,2.0,84,0.00,,,0.00,Wunderground v.1.15,2013-06-26 07:22:00,
2013-06-26 02:27:00,75.3,70.5,29.92,WSW,238,1.0,2.0,85,0.00,,,0.00,Wunderground v.1.15,2013-06-26 07:27:00,
2013-06-26 02:32:00,75.3,70.5,29.91,SW,236,0.0,4.0,85,0.00,,,0.00,Wunderground v.1.15,2013-06-26 07:32:00,
2013-06-26 02:37:00,75.2,70.4,29.91,SW,235,1.0,4.0,85,0.00,,,0.00,Wunderground v.1.15,2013-06-26 07:37:00,
2013-06-26 02:42:00,75.1,70.3,29.91,SW,229,1.0,1.0,85,0.00,,,0.00,Wunderground v.1.15,2013-06-26 07:42:00,
2013-06-26 02:47:00,75.1,70.3,29.91,SW,222,1.0,3.0,85,0.00,,,0.00,Wunderground v.1.15,2013-06-26 07:47:00,
2013-06-26 02:52:00,75.0,70.2,29.90,SW,217,1.0,2.0,85,0.00,,,0.00,Wunderground v.1.15,2013-06-26 07:52:00,
2013-06-26 02:57:00,74.9,70.1,29.90,SW,217,1.0,2.0,85,0.00,,,0.00,Wunderground v.1.15,2013-06-26 07:57:00,
2013-06-26 03:02:00,74.9,70.1,29.90,WSW,254,0.0,1.0,85,0.00,,,0.00,Wunderground v.1.15,2013-06-26 08:02:00,
2013-06-26 03:07:00,74.9,70.1,29.90,SW,223,2.0,5.0,85,0.00,,,0.00,Wunderground v.1.15,2013-06-26 08:07:00,
2013-06-26 03:12:00,74.9,69.7,29.90,SSW,205,1.0,4.0,84,0.00,,,0.00,Wunderground v.1.15,2013-06-26 08:12:00,
2013-06-26 03:17:00,74.9,69.7,29.90,SW,226,1.0,4.0,84,0.00,,,0.00,Wunderground v.1.15,2013-06-26 08:17:00,
2013-06-26 03:22:00,74.9,69.7,29.90,SW,222,0.0,2.0,84,0.00,,,0.00,Wunderground v.1.15,2013-06-26 08:22:00,
2013-06-26 03:27:00,74.9,69.7,29.90,SW,219,0.0,3.0,84,0.00,,,0.00,Wunderground v.1.15,2013-06-26 08:27:00,
2013-06-26 03:32:00,74.8,69.6,29.90,SW,214,0.0,1.0,84,0.00,,,0.00,Wunderground v.1.15,2013-06-26 08:32:00,
2013-06-26 03:37:00,74.6,69.8,29.90,SW,221,1.0,2.0,85,0.00,,,0.00,Wunderground v.1.15,2013-06-26 08:37:00,
2013-06-26 03:42:00,74.5,69.7,29.90,SSW,207,0.0,2.0,85,0.00,,,0.00,Wunderground v.1.15,2013-06-26 08:42:00,
2013-06-26 03:47:00,74.4,69.6,29.90,WSW,240,0.0,2.0,85,0.00,,,0.00,Wunderground v.1.15,2013-06-26 08:47:00,
2013-06-26 03:52:00,74.3,69.5,29.90,SW,214,0.0,1.0,85,0.00,,,0.00,Wunderground v.1.15,2013-06-26 08:52:00,
2013-06-26 03:57:00,74.2,69.4,29.90,SW,235,1.0,2.0,85,0.00,,,0.00,Wunderground v.1.15,2013-06-26 08:57:00,
2013-06-26 04:02:00,74.2,69.4,29.90,SSW,212,3.0,4.0,85,0.00,,,0.00,Wunderground v.1.15,2013-06-26 09:02:00,
2013-06-26 04:07:00,74.3,69.5,29.90,WSW,240,2.0,4.0,85,0.00,,,0.00,Wunderground v.1.15,2013-06-26 09:07:00,
2013-06-26 04:12:00,74.4,69.6,29.90,SW,235,0.0,4.0,85,0.00,,,0.00,Wunderground v.1.15,2013-06-26 09:12:00,
2013-06-26 04:17:00,74.4,69.6,29.90,SW,229,1.0,4.0,85,0.00,,,0.00,Wunderground v.1.15,2013-06-26 09:17:00,
2013-06-26 04:22:00,74.5,69.7,29.90,SSW,198,1.0,2.0,85,0.00,,,0.00,Wunderground v.1.15,2013-06-26 09:22:00,
2013-06-26 04:27:00,74.5,69.3,29.90,SW,215,5.0,5.0,84,0.00,,,0.00,Wunderground v.1.15,2013-06-26 09:27:00,
2013-06-26 04:32:00,74.6,69.4,29.90,WSW,243,1.0,3.0,84,0.00,,,0.00,Wunderground v.1.15,2013-06-26 09:32:00,
2013-06-26 04:37:00,74.7,69.5,29.90,WSW,242,0.0,3.0,84,0.00,,,0.00,Wunderground v.1.15,2013-06-26 09:37:00,
2013-06-26 04:42:00,74.8,69.6,29.91,SW,222,2.0,3.0,84,0.00,,,0.00,Wunderground v.1.15,2013-06-26 09:42:00,
2013-06-26 04:47:00,74.8,69.6,29.91,SW,236,2.0,4.0,84,0.00,,,0.00,Wunderground v.1.15,2013-06-26 09:47:00,
2013-06-26 04:52:00,74.8,69.6,29.91,WSW,245,2.0,3.0,84,0.00,,,0.00,Wunderground v.1.15,2013-06-26 09:52:00,
2013-06-26 04:57:00,74.8,69.6,29.91,SW,231,0.0,4.0,84,0.00,,,0.00,Wunderground v.1.15,2013-06-26 09:57:00,
2013-06-26 05:03:00,74.8,69.6,29.91,SW,228,2.0,5.0,84,0.00,,,0.00,Wunderground v.1.15,2013-06-26 10:03:00,
2013-06-26 05:08:00,74.8,69.6,29.91,WSW,246,0.0,5.0,84,0.00,,,0.00,Wunderground v.1.15,2013-06-26 10:08:00,
2013-06-26 05:13:00,74.8,69.6,29.91,SW,224,0.0,2.0,84,0.00,,,0.00,Wunderground v.1.15,2013-06-26 10:13:00,
2013-06-26 05:18:00,74.7,69.5,29.92,WNW,284,2.0,4.0,84,0.00,,,0.00,Wunderground v.1.15,2013-06-26 10:18:00,
2013-06-26 05:23:00,74.6,69.4,29.92,West,259,0.0,3.0,84,0.00,,,0.00,Wunderground v.1.15,2013-06-26 10:23:00,
2013-06-26 05:28:00,74.6,69.4,29.91,SW,219,1.0,3.0,84,0.00,,,0.00,Wunderground v.1.15,2013-06-26 10:28:00,
2013-06-26 05:33:00,74.5,69.7,29.91,WSW,240,1.0,3.0,85,0.00,,,0.00,Wunderground v.1.15,2013-06-26 10:33:00,
2013-06-26 05:38:00,74.5,69.7,29.91,WNW,290,1.0,3.0,85,0.00,,,0.00,Wunderground v.1.15,2013-06-26 10:38:00,
2013-06-26 05:43:00,74.4,69.6,29.91,WSW,248,0.0,3.0,85,0.00,,,0.00,Wunderground v.1.15,2013-06-26 10:43:00,
2013-06-26 05:48:00,74.5,69.7,29.92,SW,219,2.0,4.0,85,0.00,,,0.00,Wunderground v.1.15,2013-06-26 10:48:00,
2013-06-26 05:53:00,74.5,69.7,29.92,SSW,198,1.0,3.0,85,0.00,,,0.00,Wunderground v.1.15,2013-06-26 10:53:00,
2013-06-26 05:58:00,74.5,69.7,29.92,SW,214,3.0,3.0,85,0.00,,,0.00,Wunderground v.1.15,2013-06-26 10:58:00,
2013-06-26 06:03:00,74.6,69.8,29.91,West,277,2.0,5.0,85,0.00,,,0.00,Wunderground v.1.15,2013-06-26 11:03:00,
2013-06-26 06:08:00,74.7,69.9,29.91,SW,224,3.0,5.0,85,0.00,,,0.00,Wunderground v.1.15,2013-06-26 11:08:00,
2013-06-26 06:13:00,74.8,70.0,29.92,West,259,0.0,3.0,85,0.00,,,0.00,Wunderground v.1.15,2013-06-26 11:13:00,
2013-06-26 06:18:00,74.9,70.1,29.92,SW,224,5.0,5.0,85,0.00,,,0.00,Wunderground v.1.15,2013-06-26 11:18:00,
2013-06-26 06:23:00,75.1,69.9,29.92,SW,236,1.0,3.0,84,0.00,,,0.00,Wunderground v.1.15,2013-06-26 11:23:00,
2013-06-26 06:28:00,75.3,70.1,29.92,SSW,211,2.0,10.0,84,0.00,,,0.00,Wunderground v.1.15,2013-06-26 11:28:00,
2013-06-26 06:33:00,75.5,70.3,29.92,SW,230,2.0,5.0,84,0.00,,,0.00,Wunderground v.1.15,2013-06-26 11:33:00,
2013-06-26 06:38:00,75.7,70.5,29.92,SW,219,0.0,5.0,84,0.00,,,0.00,Wunderground v.1.15,2013-06-26 11:38:00,
2013-06-26 06:43:00,75.9,70.7,29.92,West,273,4.0,5.0,84,0.00,,,0.00,Wunderground v.1.15,2013-06-26 11:43:00,
2013-06-26 06:48:00,76.1,70.6,29.92,SW,225,2.0,5.0,83,0.00,,,0.00,Wunderground v.1.15,2013-06-26 11:48:00,
2013-06-26 06:53:00,76.3,70.8,29.92,WNW,293,2.0,4.0,83,0.00,,,0.00,Wunderground v.1.15,2013-06-26 11:53:00,
2013-06-26 06:58:00,76.4,70.9,29.92,West,274,2.0,7.0,83,0.00,,,0.00,Wunderground v.1.15,2013-06-26 11:58:00,
2013-06-26 07:03:00,76.6,71.0,29.92,WSW,238,2.0,6.0,83,0.00,,,0.00,Wunderground v.1.15,2013-06-26 12:03:00,
2013-06-26 07:08:00,76.8,71.2,29.92,SW,229,3.0,6.0,83,0.00,,,0.00,Wunderground v.1.15,2013-06-26 12:08:00,
2013-06-26 07:13:00,76.9,71.0,29.92,WSW,245,4.0,9.0,82,0.00,,,0.00,Wunderground v.1.15,2013-06-26 12:13:00,
2013-06-26 07:18:00,77.1,71.2,29.92,West,262,3.0,9.0,82,0.00,,,0.00,Wunderground v.1.15,2013-06-26 12:18:00,
2013-06-26 07:23:00,77.4,71.5,29.92,WSW,238,4.0,5.0,82,0.00,,,0.00,Wunderground v.1.15,2013-06-26 12:23:00,
2013-06-26 07:28:00,77.6,71.7,29.91,SW,229,4.0,6.0,82,0.00,,,0.00,Wunderground v.1.15,2013-06-26 12:28:00,
2013-06-26 07:33:00,77.8,71.9,29.92,SW,236,3.0,6.0,82,0.00,,,0.00,Wunderground v.1.15,2013-06-26 12:33:00,
2013-06-26 07:38:00,78.1,71.8,29.91,WSW,245,4.0,6.0,81,0.00,,,0.00,Wunderground v.1.15,2013-06-26 12:38:00,
2013-06-26 07:43:00,78.4,72.1,29.92,SW,224,2.0,7.0,81,0.00,,,0.00,Wunderground v.1.15,2013-06-26 12:43:00,
2013-06-26 07:48:00,78.7,72.4,29.92,WSW,245,2.0,7.0,81,0.00,,,0.00,Wunderground v.1.15,2013-06-26 12:48:00,
2013-06-26 07:53:00,79.0,72.7,29.91,SW,231,1.0,6.0,81,0.00,,,0.00,Wunderground v.1.15,2013-06-26 12:53:00,
2013-06-26 07:58:00,79.3,72.6,29.92,NW,309,2.0,10.0,80,0.00,,,0.00,Wunderground v.1.15,2013-06-26 12:58:00,
2013-06-26 08:03:00,79.7,73.0,29.92,SW,228,1.0,3.0,80,0.00,,,0.00,Wunderground v.1.15,2013-06-26 13:03:00,
2013-06-26 08:08:00,80.2,73.1,29.92,SSW,210,1.0,6.0,79,0.00,,,0.00,Wunderground v.1.15,2013-06-26 13:08:00,
2013-06-26 08:13:00,80.7,73.6,29.92,West,260,1.0,6.0,79,0.00,,,0.00,Wunderground v.1.15,2013-06-26 13:13:00,
2013-06-26 08:18:00,81.0,73.5,29.92,WSW,255,3.0,7.0,78,0.00,,,0.00,Wunderground v.1.15,2013-06-26 13:18:00,
2013-06-26 08:23:00,81.3,73.8,29.92,SSW,203,2.0,8.0,78,0.00,,,0.00,Wunderground v.1.15,2013-06-26 13:23:00,
2013-06-26 08:28:00,81.7,73.8,29.91,SW,235,5.0,8.0,77,0.00,,,0.00,Wunderground v.1.15,2013-06-26 13:28:00,
2013-06-26 08:33:00,81.9,74.0,29.91,SW,236,1.0,5.0,77,0.00,,,0.00,Wunderground v.1.15,2013-06-26 13:33:00,
2013-06-26 08:38:00,82.0,73.7,29.91,WNW,300,3.0,8.0,76,0.00,,,0.00,Wunderground v.1.15,2013-06-26 13:38:00,
2013-06-26 08:43:00,82.4,74.1,29.92,West,259,1.0,6.0,76,0.00,,,0.00,Wunderground v.1.15,2013-06-26 13:43:00,
2013-06-26 08:48:00,82.7,74.0,29.92,WNW,283,4.0,13.0,75,0.00,,,0.00,Wunderground v.1.15,2013-06-26 13:48:00,
2013-06-26 08:53:00,82.8,74.5,29.92,WSW,256,4.0,8.0,76,0.00,,,0.00,Wunderground v.1.15,2013-06-26 13:53:00,
2013-06-26 08:58:00,83.0,74.3,29.92,WNW,297,5.0,10.0,75,0.00,,,0.00,Wunderground v.1.15,2013-06-26 13:58:00,
2013-06-26 09:03:00,82.9,73.8,29.92,WSW,246,3.0,10.0,74,0.00,,,0.00,Wunderground v.1.15,2013-06-26 14:03:00,
2013-06-26 09:08:00,83.1,74.4,29.92,SW,230,1.0,10.0,75,0.00,,,0.00,Wunderground v.1.15,2013-06-26 14:08:00,
2013-06-26 09:13:00,83.1,73.9,29.92,West,267,3.0,10.0,74,0.00,,,0.00,Wunderground v.1.15,2013-06-26 14:13:00,
2013-06-26 09:18:00,83.1,74.4,29.92,SW,224,4.0,10.0,75,0.00,,,0.00,Wunderground v.1.15,2013-06-26 14:18:00,
2013-06-26 09:23:00,83.0,73.9,29.92,West,277,5.0,9.0,74,0.00,,,0.00,Wunderground v.1.15,2013-06-26 14:23:00,
2013-06-26 09:28:00,82.9,74.2,29.92,West,260,0.0,9.0,75,0.00,,,0.00,Wunderground v.1.15,2013-06-26 14:28:00,
2013-06-26 09:33:00,83.1,74.4,29.92,West,264,4.0,5.0,75,0.00,,,0.00,Wunderground v.1.15,2013-06-26 14:33:00,
2013-06-26 09:38:00,83.2,74.4,29.92,SW,233,3.0,7.0,75,0.00,,,0.00,Wunderground v.1.15,2013-06-26 14:38:00,
2013-06-26 09:43:00,83.2,74.4,29.93,West,267,4.0,6.0,75,0.00,,,0.00,Wunderground v.1.15,2013-06-26 14:43:00,
2013-06-26 09:48:00,83.2,74.4,29.93,WSW,253,3.0,8.0,75,0.00,,,0.00,Wunderground v.1.15,2013-06-26 14:48:00,
2013-06-26 09:53:00,83.0,74.3,29.93,NNW,336,3.0,8.0,75,0.00,,,0.00,Wunderground v.1.15,2013-06-26 14:53:00,
2013-06-26 09:58:00,82.8,74.1,29.92,West,274,7.0,9.0,75,0.00,,,0.00,Wunderground v.1.15,2013-06-26 14:58:00,
2013-06-26 10:03:00,82.8,74.5,29.91,SSW,211,1.0,6.0,76,0.00,,,0.00,Wunderground v.1.15,2013-06-26 15:03:00,
2013-06-26 10:08:00,82.8,74.5,29.90,SSE,158,3.0,8.0,76,0.00,,,0.00,Wunderground v.1.15,2013-06-26 15:08:00,
2013-06-26 10:13:00,82.6,74.3,29.91,SSW,212,2.0,8.0,76,0.00,,,0.00,Wunderground v.1.15,2013-06-26 15:13:00,
2013-06-26 10:18:00,82.3,74.4,29.91,WSW,249,3.0,8.0,77,0.00,,,0.00,Wunderground v.1.15,2013-06-26 15:18:00,
2013-06-26 10:23:00,82.0,74.1,29.90,WSW,243,2.0,4.0,77,0.00,,,0.00,Wunderground v.1.15,2013-06-26 15:23:00,
2013-06-26 10:29:00,81.7,74.2,29.90,SW,224,4.0,6.0,78,0.00,,,0.00,Wunderground v.1.15,2013-06-26 15:29:00,
2013-06-26 10:34:00,81.5,74.0,29.90,SSW,201,1.0,4.0,78,0.00,,,0.00,Wunderground v.1.15,2013-06-26 15:34:00,
2013-06-26 10:39:00,81.2,74.1,29.90,SW,236,1.0,4.0,79,0.00,,,0.00,Wunderground v.1.15,2013-06-26 15:39:00,
2013-06-26 10:44:00,80.9,74.1,29.90,SW,226,1.0,3.0,80,0.00,,,0.00,Wunderground v.1.15,2013-06-26 15:44:00,
2013-06-26 10:49:00,80.7,74.3,29.90,WSW,250,2.0,3.0,81,0.00,,,0.00,Wunderground v.1.15,2013-06-26 15:49:00,
2013-06-26 10:54:00,80.7,74.3,29.90,SW,225,4.0,5.0,81,0.00,,,0.00,Wunderground v.1.15,2013-06-26 15:54:00,
2013-06-26 10:59:00,80.7,74.3,29.89,West,262,2.0,5.0,81,0.00,,,0.00,Wunderground v.1.15,2013-06-26 15:59:00,
2013-06-26 11:04:00,80.9,74.1,29.89,WSW,253,2.0,8.0,80,0.00,,,0.00,Wunderground v.1.15,2013-06-26 16:04:00,
2013-06-26 11:09:00,81.0,73.9,29.89,SW,215,2.0,8.0,79,0.00,,,0.00,Wunderground v.1.15,2013-06-26 16:09:00,
2013-06-26 11:14:00,81.1,74.0,29.89,WSW,246,2.0,5.0,79,0.00,,,0.00,Wunderground v.1.15,2013-06-26 16:14:00,
2013-06-26 11:19:00,81.2,74.1,29.88,SW,226,5.0,7.0,79,0.00,,,0.00,Wunderground v.1.15,2013-06-26 16:19:00,
2013-06-26 11:24:00,81.4,74.3,29.88,West,260,2.0,7.0,79,0.00,,,0.00,Wunderground v.1.15,2013-06-26 16:24:00,
2013-06-26 11:29:00,81.6,74.5,29.87,WSW,244,5.0,7.0,79,0.00,,,0.00,Wunderground v.1.15,2013-06-26 16:29:00,
2013-06-26 11:34:00,81.9,74.7,29.87,SSW,204,5.0,7.0,79,0.00,,,0.00,Wunderground v.1.15,2013-06-26 16:34:00,
2013-06-26 11:39:00,82.3,74.7,29.87,SW,219,5.0,8.0,78,0.00,,,0.00,Wunderground v.1.15,2013-06-26 16:39:00,
2013-06-26 11:44:00,82.6,74.7,29.87,WSW,253,1.0,8.0,77,0.00,,,0.00,Wunderground v.1.15,2013-06-26 16:44:00,
2013-06-26 11:49:00,82.9,74.9,29.87,SSE,158,2.0,8.0,77,0.00,,,0.00,Wunderground v.1.15,2013-06-26 16:49:00,
2013-06-26 11:54:00,83.1,75.1,29.87,WSW,257,2.0,7.0,77,0.00,,,0.00,Wunderground v.1.15,2013-06-26 16:54:00,
2013-06-26 11:59:00,83.5,75.1,29.87,West,259,3.0,7.0,76,0.00,,,0.00,Wunderground v.1.15,2013-06-26 16:59:00,
2013-06-26 12:04:00,84.0,76.0,29.87,SSW,197,1.0,7.0,77,0.00,,,0.00,Wunderground v.1.15,2013-06-26 17:04:00,
2013-06-26 12:09:00,84.5,76.1,29.87,West,264,2.0,8.0,76,0.00,,,0.00,Wunderground v.1.15,2013-06-26 17:09:00,
2013-06-26 12:14:00,85.0,75.8,29.87,SW,222,5.0,8.0,74,0.00,,,0.00,Wunderground v.1.15,2013-06-26 17:14:00,
2013-06-26 12:19:00,85.6,75.9,29.87,West,263,5.0,9.0,73,0.00,,,0.00,Wunderground v.1.15,2013-06-26 17:19:00,
2013-06-26 12:24:00,86.1,75.6,29.88,WSW,253,6.0,9.0,71,0.00,,,0.00,Wunderground v.1.15,2013-06-26 17:24:00,
2013-06-26 12:29:00,86.6,76.1,29.87,West,267,3.0,11.0,71,0.00,,,0.00,Wunderground v.1.15,2013-06-26 17:29:00,
2013-06-26 12:34:00,87.0,76.0,29.87,SW,215,4.0,11.0,70,0.00,,,0.00,Wunderground v.1.15,2013-06-26 17:34:00,
2013-06-26 12:39:00,87.1,76.1,29.87,West,280,5.0,12.0,70,0.00,,,0.00,Wunderground v.1.15,2013-06-26 17:39:00,
2013-06-26 12:44:00,87.3,76.3,29.88,SW,236,9.0,11.0,70,0.00,,,0.00,Wunderground v.1.15,2013-06-26 17:44:00,
2013-06-26 12:49:00,87.2,74.9,29.87,WSW,252,6.0,13.0,67,0.00,,,0.00,Wunderground v.1.15,2013-06-26 17:49:00,
2013-06-26 12:54:00,87.3,75.9,29.87,WNW,295,6.0,13.0,69,0.00,,,0.00,Wunderground v.1.15,2013-06-26 17:54:00,
2013-06-26 12:59:00,87.7,75.8,29.87,WSW,248,5.0,13.0,68,0.00,,,0.00,Wunderground v.1.15,2013-06-26 17:59:00,
2013-06-26 13:04:00,88.0,75.2,29.87,South,188,4.0,14.0,66,0.00,,,0.00,Wunderground v.1.15,2013-06-26 18:04:00,
2013-06-26 13:09:00,87.9,75.1,29.86,WNW,288,4.0,17.0,66,0.00,,,0.00,Wunderground v.1.15,2013-06-26 18:09:00,
2013-06-26 13:14:00,88.3,75.9,29.86,West,277,7.0,9.0,67,0.00,,,0.00,Wunderground v.1.15,2013-06-26 18:14:00,
2013-06-26 13:19:00,88.3,76.4,29.86,West,276,2.0,12.0,68,0.00,,,0.00,Wunderground v.1.15,2013-06-26 18:19:00,
2013-06-26 13:24:00,88.3,75.5,29.86,WSW,240,6.0,14.0,66,0.00,,,0.00,Wunderground v.1.15,2013-06-26 18:24:00,
2013-06-26 13:29:00,87.9,74.7,29.86,West,264,6.0,15.0,65,0.00,,,0.00,Wunderground v.1.15,2013-06-26 18:29:00,
2013-06-26 13:34:00,88.0,75.2,29.86,WSW,249,8.0,18.0,66,0.00,,,0.00,Wunderground v.1.15,2013-06-26 18:34:00,
2013-06-26 13:39:00,87.6,74.4,29.85,West,269,7.0,18.0,65,0.00,,,0.00,Wunderground v.1.15,2013-06-26 18:39:00,
2013-06-26 13:44:00,87.6,74.8,29.85,SW,217,3.0,13.0,66,0.00,,,0.00,Wunderground v.1.15,2013-06-26 18:44:00,
2013-06-26 13:49:00,88.1,75.8,29.85,SE,138,7.0,13.0,67,0.00,,,0.00,Wunderground v.1.15,2013-06-26 18:49:00,
2013-06-26 13:54:00,88.1,75.8,29.84,WSW,243,6.0,12.0,67,0.00,,,0.00,Wunderground v.1.15,2013-06-26 18:54:00,
2013-06-26 13:59:00,88.4,75.1,29.84,SSW,208,4.0,14.0,65,0.00,,,0.00,Wunderground v.1.15,2013-06-26 18:59:00,
2013-06-26 14:04:00,88.9,75.1,29.84,West,278,7.0,12.0,64,0.00,,,0.00,Wunderground v.1.15,2013-06-26 19:04:00,
2013-06-26 14:09:00,89.2,75.4,29.84,SSW,204,7.0,12.0,64,0.00,,,0.00,Wunderground v.1.15,2013-06-26 19:09:00,
2013-06-26 14:14:00,89.3,75.5,29.84,West,276,4.0,13.0,64,0.00,,,0.00,Wunderground v.1.15,2013-06-26 19:14:00,
2013-06-26 14:19:00,89.7,76.4,29.83,WSW,238,6.0,13.0,65,0.00,,,0.00,Wunderground v.1.15,2013-06-26 19:19:00,
2013-06-26 14:24:00,89.6,75.3,29.83,WSW,242,8.0,14.0,63,0.00,,,0.00,Wunderground v.1.15,2013-06-26 19:24:00,
2013-06-26 14:29:00,89.1,75.3,29.83,WSW,242,8.0,14.0,64,0.00,,,0.00,Wunderground v.1.15,2013-06-26 19:29:00,
2013-06-26 14:34:00,88.7,75.0,29.83,West,270,10.0,14.0,64,0.00,,,0.00,Wunderground v.1.15,2013-06-26 19:34:00,
2013-06-26 14:39:00,88.5,74.8,29.82,WSW,250,5.0,15.0,64,0.00,,,0.00,Wunderground v.1.15,2013-06-26 19:39:00,
2013-06-26 14:44:00,88.8,75.0,29.82,WNW,288,3.0,13.0,64,0.00,,,0.00,Wunderground v.1.15,2013-06-26 19:44:00,
2013-06-26 14:49:00,89.1,75.3,29.82,WSW,246,11.0,17.0,64,0.00,,,0.00,Wunderground v.1.15,2013-06-26 19:49:00,
2013-06-26 14:54:00,89.3,74.6,29.82,WSW,249,14.0,18.0,62,0.00,,,0.00,Wunderground v.1.15,2013-06-26 19:54:00,
2013-06-26 14:59:00,89.0,75.2,29.82,WNW,290,9.0,18.0,64,0.00,,,0.00,Wunderground v.1.15,2013-06-26 19:59:00,
2013-06-26 15:04:00,89.2,75.0,29.81,West,270,7.0,12.0,63,0.00,,,0.00,Wunderground v.1.15,2013-06-26 20:04:00,
2013-06-26 15:09:00,89.0,75.2,29.81,West,271,5.0,12.0,64,0.00,,,0.00,Wunderground v.1.15,2013-06-26 20:09:00,
2013-06-26 15:14:00,89.3,75.5,29.81,WSW,250,7.0,14.0,64,0.00,,,0.00,Wunderground v.1.15,2013-06-26 20:14:00,
2013-06-26 15:19:00,89.0,75.2,29.81,WSW,243,4.0,15.0,64,0.00,,,0.00,Wunderground v.1.15,2013-06-26 20:19:00,
2013-06-26 15:20:00,89.0,75.2,29.81,SW,228,7.0,15.0,64,0.00,,,0.00,Wunderground v.1.15,2013-06-26 20:20:00,
2013-06-26 15:25:00,89.0,75.2,29.81,West,273,4.0,16.0,64,0.00,,,0.00,Wunderground v.1.15,2013-06-26 20:25:00,
2013-06-26 15:30:00,89.5,75.7,29.80,West,263,6.0,16.0,64,0.00,,,0.00,Wunderground v.1.15,2013-06-26 20:30:00,
2013-06-26 15:34:00,89.7,75.4,29.81,WSW,256,3.0,12.0,63,0.00,,,0.00,Wunderground v.1.15,2013-06-26 20:34:00,
2013-06-26 15:39:00,89.8,76.0,29.80,WNW,298,4.0,13.0,64,0.00,,,0.00,Wunderground v.1.15,2013-06-26 20:39:00,
2013-06-26 15:45:00,89.9,75.6,29.80,SSE,165,5.0,13.0,63,0.00,,,0.00,Wunderground v.1.15,2013-06-26 20:45:00,
2013-06-26 15:50:00,90.0,76.2,29.80,WNW,285,4.0,13.0,64,0.00,,,0.00,Wunderground v.1.15,2013-06-26 20:50:00,
2013-06-26 15:55:00,90.1,75.8,29.80,WNW,298,0.0,9.0,63,0.00,,,0.00,Wunderground v.1.15,2013-06-26 20:55:00,
2013-06-26 16:00:00,90.3,76.0,29.79,West,278,7.0,9.0,63,0.00,,,0.00,Wunderground v.1.15,2013-06-26 21:00:00,
2013-06-26 16:05:00,89.7,74.5,29.79,NW,314,8.0,15.0,61,0.00,,,0.00,Wunderground v.1.15,2013-06-26 21:05:00,
2013-06-26 16:10:00,89.1,74.9,29.79,WNW,283,5.0,15.0,63,0.00,,,0.00,Wunderground v.1.15,2013-06-26 21:10:00,
2013-06-26 16:15:00,88.8,75.0,29.79,WSW,253,4.0,10.0,64,0.00,,,0.00,Wunderground v.1.15,2013-06-26 21:15:00,
2013-06-26 16:20:00,88.9,75.1,29.79,WNW,291,5.0,13.0,64,0.00,,,0.00,Wunderground v.1.15,2013-06-26 21:20:00,
2013-06-26 16:25:00,88.9,75.1,29.79,WSW,258,2.0,9.0,64,0.00,,,0.00,Wunderground v.1.15,2013-06-26 21:25:00,
2013-06-26 16:30:00,88.7,75.4,29.79,WSW,242,6.0,11.0,65,0.00,,,0.00,Wunderground v.1.15,2013-06-26 21:30:00,
2013-06-26 16:35:00,88.8,75.5,29.79,WSW,252,4.0,9.0,65,0.00,,,0.00,Wunderground v.1.15,2013-06-26 21:35:00,
2013-06-26 16:40:00,89.2,75.4,29.78,West,264,5.0,14.0,64,0.00,,,0.00,Wunderground v.1.15,2013-06-26 21:40:00,
2013-06-26 16:45:00,89.7,75.4,29.78,WSW,256,4.0,11.0,63,0.00,,,0.00,Wunderground v.1.15,2013-06-26 21:45:00,
2013-06-26 16:50:00,90.2,75.4,29.78,West,277,2.0,6.0,62,0.00,,,0.00,Wunderground v.1.15,2013-06-26 21:50:00,
2013-06-26 16:55:00,90.4,75.6,29.78,West,271,3.0,8.0,62,0.00,,,0.00,Wunderground v.1.15,2013-06-26 21:55:00,
2013-06-26 17:00:00,90.4,75.1,29.77,WNW,298,9.0,9.0,61,0.00,,,0.00,Wunderground v.1.15,2013-06-26 22:00:00,
2013-06-26 17:05:00,90.4,74.1,29.78,WSW,240,8.0,17.0,59,0.00,,,0.00,Wunderground v.1.15,2013-06-26 22:05:00,
2013-06-26 17:10:00,90.5,74.7,29.78,WSW,258,4.0,7.0,60,0.00,,,0.00,Wunderground v.1.15,2013-06-26 22:10:00,
2013-06-26 17:15:00,90.5,75.2,29.77,West,263,6.0,11.0,61,0.00,,,0.00,Wunderground v.1.15,2013-06-26 22:15:00,
2013-06-26 17:20:00,90.6,74.3,29.77,West,263,9.0,18.0,59,0.00,,,0.00,Wunderground v.1.15,2013-06-26 22:20:00,
2013-06-26 17:25:00,90.5,73.7,29.77,SSW,207,5.0,18.0,58,0.00,,,0.00,Wunderground v.1.15,2013-06-26 22:25:00,
2013-06-26 17:30:00,90.4,73.6,29.77,West,280,5.0,7.0,58,0.00,,,0.00,Wunderground v.1.15,2013-06-26 22:30:00,
2013-06-26 17:35:00,90.4,73.6,29.77,WSW,240,6.0,13.0,58,0.00,,,0.00,Wunderground v.1.15,2013-06-26 22:35:00,
2013-06-26 17:40:00,90.3,74.0,29.76,WSW,256,5.0,7.0,59,0.00,,,0.00,Wunderground v.1.15,2013-06-26 22:40:00,
2013-06-26 17:45:00,90.3,73.5,29.77,WNW,295,4.0,10.0,58,0.00,,,0.00,Wunderground v.1.15,2013-06-26 22:45:00,
2013-06-26 17:50:00,90.3,73.5,29.76,SSE,149,3.0,6.0,58,0.00,,,0.00,Wunderground v.1.15,2013-06-26 22:50:00,
2013-06-26 17:55:00,90.4,73.6,29.76,SW,217,10.0,10.0,58,0.00,,,0.00,Wunderground v.1.15,2013-06-26 22:55:00,
2013-06-26 18:00:00,90.4,73.1,29.76,WNW,288,5.0,8.0,57,0.00,,,0.00,Wunderground v.1.15,2013-06-26 23:00:00,
2013-06-26 18:05:00,90.4,73.6,29.76,SW,229,8.0,12.0,58,0.00,,,0.00,Wunderground v.1.15,2013-06-26 23:05:00,
2013-06-26 18:10:00,90.2,72.9,29.75,West,262,7.0,12.0,57,0.00,,,0.00,Wunderground v.1.15,2013-06-26 23:10:00,
2013-06-26 18:15:00,90.2,72.9,29.75,WSW,250,4.0,12.0,57,0.00,,,0.00,Wunderground v.1.15,2013-06-26 23:15:00,
2013-06-26 18:20:00,90.2,73.4,29.75,SW,236,4.0,7.0,58,0.00,,,0.00,Wunderground v.1.15,2013-06-26 23:20:00,
2013-06-26 18:25:00,90.1,73.3,29.74,West,273,3.0,12.0,58,0.00,,,0.00,Wunderground v.1.15,2013-06-26 23:25:00,
2013-06-26 18:30:00,89.9,73.1,29.74,West,270,4.0,7.0,58,0.00,,,0.00,Wunderground v.1.15,2013-06-26 23:30:00,
2013-06-26 18:35:00,89.8,73.0,29.74,WNW,284,7.0,10.0,58,0.00,,,0.00,Wunderground v.1.15,2013-06-26 23:35:00,
2013-06-26 18:40:00,89.6,72.3,29.74,WNW,283,5.0,9.0,57,0.00,,,0.00,Wunderground v.1.15,2013-06-26 23:40:00,
2013-06-26 18:46:00,89.4,72.2,29.75,West,271,4.0,12.0,57,0.00,,,0.00,Wunderground v.1.15,2013-06-26 23:46:00,
2013-06-26 18:51:00,89.3,72.6,29.74,West,271,6.0,7.0,58,0.00,,,0.00,Wunderground v.1.15,2013-06-26 23:51:00,
2013-06-26 18:56:00,89.1,72.4,29.74,West,265,4.0,12.0,58,0.00,,,0.00,Wunderground v.1.15,2013-06-26 23:56:00,
2013-06-26 19:01:00,89.0,72.3,29.74,WSW,252,4.0,5.0,58,0.00,,,0.00,Wunderground v.1.15,2013-06-27 00:01:00,
2013-06-26 19:06:00,88.9,72.7,29.74,West,267,4.0,11.0,59,0.00,,,0.00,Wunderground v.1.15,2013-06-27 00:06:00,
2013-06-26 19:11:00,88.8,72.6,29.74,SSW,201,5.0,8.0,59,0.00,,,0.00,Wunderground v.1.15,2013-06-27 00:11:00,
2013-06-26 19:16:00,88.6,72.4,29.75,NW,305,4.0,10.0,59,0.00,,,0.00,Wunderground v.1.15,2013-06-27 00:16:00,
2013-06-26 19:21:00,88.2,72.6,29.75,West,277,6.0,7.0,60,0.00,,,0.00,Wunderground v.1.15,2013-06-27 00:21:00,
2013-06-26 19:26:00,87.8,72.2,29.76,NW,315,2.0,8.0,60,0.00,,,0.00,Wunderground v.1.15,2013-06-27 00:26:00,
2013-06-26 19:31:00,87.5,72.4,29.75,WSW,257,4.0,7.0,61,0.00,,,0.00,Wunderground v.1.15,2013-06-27 00:31:00,
2013-06-26 19:36:00,87.3,72.2,29.75,WSW,238,2.0,11.0,61,0.00,,,0.00,Wunderground v.1.15,2013-06-27 00:36:00,
2013-06-26 19:41:00,87.1,72.5,29.74,WSW,249,4.0,5.0,62,0.00,,,0.00,Wunderground v.1.15,2013-06-27 00:41:00,
2013-06-26 19:46:00,87.0,72.4,29.74,West,267,2.0,8.0,62,0.00,,,0.00,Wunderground v.1.15,2013-06-27 00:46:00,
2013-06-26 19:51:00,86.8,72.2,29.74,SW,231,3.0,5.0,62,0.00,,,0.00,Wunderground v.1.15,2013-06-27 00:51:00,
2013-06-26 19:56:00,86.7,72.1,29.75,West,267,3.0,7.0,62,0.00,,,0.00,Wunderground v.1.15,2013-06-27 00:56:00,
2013-06-26 20:01:00,86.6,72.0,29.75,WNW,285,3.0,6.0,62,0.00,,,0.00,Wunderground v.1.15,2013-06-27 01:01:00,
2013-06-26 20:06:00,86.4,72.3,29.76,West,274,2.0,6.0,63,0.00,,,0.00,Wunderground v.1.15,2013-06-27 01:06:00,
2013-06-26 20:11:00,86.3,72.2,29.75,West,277,4.0,6.0,63,0.00,,,0.00,Wunderground v.1.15,2013-06-27 01:11:00,
2013-06-26 20:16:00,86.2,72.6,29.76,West,278,4.0,6.0,64,0.00,,,0.00,Wunderground v.1.15,2013-06-27 01:16:00,
2013-06-26 20:21:00,86.1,72.5,29.75,WSW,255,3.0,5.0,64,0.00,,,0.00,Wunderground v.1.15,2013-06-27 01:21:00,
2013-06-26 20:26:00,85.9,72.3,29.76,WSW,238,2.0,5.0,64,0.00,,,0.00,Wunderground v.1.15,2013-06-27 01:26:00,
2013-06-26 20:31:00,85.8,72.2,29.75,West,277,1.0,3.0,64,0.00,,,0.00,Wunderground v.1.15,2013-06-27 01:31:00,
2013-06-26 20:36:00,85.7,72.6,29.74,West,271,8.0,8.0,65,0.00,,,0.00,Wunderground v.1.15,2013-06-27 01:36:00,
2013-06-26 20:41:00,85.6,72.0,29.75,WNW,294,3.0,4.0,64,0.00,,,0.00,Wunderground v.1.15,2013-06-27 01:41:00,
2013-06-26 20:46:00,85.6,72.5,29.75,SW,229,3.0,9.0,65,0.00,,,0.00,Wunderground v.1.15,2013-06-27 01:46:00,
2013-06-26 20:51:00,85.5,72.4,29.75,SW,232,2.0,5.0,65,0.00,,,0.00,Wunderground v.1.15,2013-06-27 01:51:00,
2013-06-26 20:56:00,85.5,72.4,29.74,SW,233,6.0,12.0,65,0.00,,,0.00,Wunderground v.1.15,2013-06-27 01:56:00,
2013-06-26 21:01:00,85.4,72.3,29.76,WNW,301,3.0,9.0,65,0.00,,,0.00,Wunderground v.1.15,2013-06-27 02:01:00,
2013-06-26 21:06:00,85.5,72.4,29.75,WSW,257,3.0,9.0,65,0.00,,,0.00,Wunderground v.1.15,2013-06-27 02:06:00,
2013-06-26 21:11:00,85.4,72.3,29.75,WSW,253,6.0,8.0,65,0.00,,,0.00,Wunderground v.1.15,2013-06-27 02:11:00,
2013-06-26 21:16:00,85.3,72.2,29.75,NW,304,2.0,8.0,65,0.00,,,0.00,Wunderground v.1.15,2013-06-27 02:16:00,
2013-06-26 21:21:00,85.2,73.0,29.79,NNE,27,10.0,13.0,67,0.00,,,0.00,Wunderground v.1.15,2013-06-27 02:21:00,
2013-06-26 21:26:00,82.5,71.7,29.80,NW,324,13.0,23.0,70,3.62,,,0.09,Wunderground v.1.15,2013-06-27 02:26:00,
2013-06-26 21:31:00,78.7,70.9,29.80,East,82,4.0,9.0,77,0.83,,,0.20,Wunderground v.1.15,2013-06-27 02:31:00,
2013-06-26 21:36:00,76.9,72.7,29.80,SSE,159,0.0,9.0,87,0.47,,,0.25,Wunderground v.1.15,2013-06-27 02:36:00,
2013-06-26 21:41:00,76.0,72.9,29.80,SE,141,3.0,3.0,90,0.24,,,0.28,Wunderground v.1.15,2013-06-27 02:41:00,
2013-06-26 21:46:00,75.5,72.7,29.81,SE,129,0.0,3.0,91,0.11,,,0.28,Wunderground v.1.15,2013-06-27 02:46:00,
2013-06-26 21:51:00,75.3,73.1,29.81,SSW,193,1.0,2.0,93,0.06,,,0.28,Wunderground v.1.15,2013-06-27 02:51:00,
2013-06-26 21:56:00,75.2,73.0,29.80,SSE,158,3.0,4.0,93,0.04,,,0.28,Wunderground v.1.15,2013-06-27 02:56:00,
2013-06-26 22:01:00,75.2,73.0,29.80,SSE,167,2.0,4.0,93,0.00,,,0.28,Wunderground v.1.15,2013-06-27 03:01:00,
2013-06-26 22:06:00,75.0,72.8,29.79,South,191,1.0,6.0,93,0.00,,,0.28,Wunderground v.1.15,2013-06-27 03:06:00,
2013-06-26 22:11:00,74.9,73.1,29.79,SE,139,1.0,2.0,94,0.00,,,0.28,Wunderground v.1.15,2013-06-27 03:11:00,
2013-06-26 22:16:00,74.9,73.1,29.78,SSE,153,2.0,4.0,94,0.00,,,0.28,Wunderground v.1.15,2013-06-27 03:16:00,
2013-06-26 22:21:00,74.9,73.4,29.79,SSW,204,2.0,3.0,95,0.00,,,0.28,Wunderground v.1.15,2013-06-27 03:21:00,
2013-06-26 22:26:00,74.9,73.4,29.80,WSW,243,2.0,5.0,95,0.00,,,0.28,Wunderground v.1.15,2013-06-27 03:26:00,
2013-06-26 22:31:00,74.9,73.4,29.79,SW,235,3.0,5.0,95,0.00,,,0.28,Wunderground v.1.15,2013-06-27 03:31:00,
2013-06-26 22:36:00,74.9,73.4,29.78,SSW,212,2.0,5.0,95,0.00,,,0.28,Wunderground v.1.15,2013-06-27 03:36:00,
2013-06-26 22:41:00,74.9,73.4,29.77,SSE,158,1.0,3.0,95,0.00,,,0.28,Wunderground v.1.15,2013-06-27 03:41:00,
2013-06-26 22:46:00,74.9,73.7,29.78,SE,140,0.0,3.0,96,0.00,,,0.28,Wunderground v.1.15,2013-06-27 03:46:00,
2013-06-26 22:51:00,74.9,73.4,29.78,SE,139,0.0,1.0,95,0.00,,,0.28,Wunderground v.1.15,2013-06-27 03:51:00,
2013-06-26 22:56:00,74.9,73.7,29.78,SW,219,0.0,1.0,96,0.00,,,0.28,Wunderground v.1.15,2013-06-27 03:56:00,
2013-06-26 23:01:00,75.0,73.8,29.78,South,176,0.0,0.0,96,0.00,,,0.28,Wunderground v.1.15,2013-06-27 04:01:00,
2013-06-26 23:06:00,75.0,73.8,29.80,NE,51,9.0,11.0,96,0.00,,,0.28,Wunderground v.1.15,2013-06-27 04:06:00,
2013-06-26 23:11:00,75.2,74.0,29.81,NE,50,7.0,7.0,96,0.00,,,0.28,Wunderground v.1.15,2013-06-27 04:11:00,
2013-06-26 23:16:00,75.7,74.2,29.83,NE,50,6.0,14.0,95,0.82,,,0.30,Wunderground v.1.15,2013-06-27 04:16:00,
2013-06-26 23:21:00,75.6,74.1,29.85,ENE,57,13.0,13.0,95,3.58,,,0.43,Wunderground v.1.15,2013-06-27 04:21:00,
2013-06-26 23:26:00,74.9,73.4,29.86,SE,139,0.0,19.0,95,2.87,,,0.65,Wunderground v.1.15,2013-06-27 04:26:00,
2013-06-26 23:31:00,74.1,72.6,29.82,SSE,162,4.0,5.0,95,1.98,,,0.85,Wunderground v.1.15,2013-06-27 04:31:00,
2013-06-26 23:36:00,73.7,72.2,29.81,ESE,122,2.0,7.0,95,0.29,,,0.88,Wunderground v.1.15,2013-06-27 04:36:00,
2013-06-26 23:41:00,73.4,71.9,29.83,ESE,108,0.0,3.0,95,0.08,,,0.88,Wunderground v.1.15,2013-06-27 04:41:00,
2013-06-26 23:46:00,73.2,71.7,29.83,WSW,252,3.0,3.0,95,0.05,,,0.88,Wunderground v.1.15,2013-06-27 04:46:00,
2013-06-26 23:51:00,73.1,71.9,29.83,WSW,243,2.0,2.0,96,0.00,,,0.88,Wunderground v.1.15,2013-06-27 04:51:00,
2013-06-26 23:56:00,73.2,72.0,29.83,WSW,238,1.0,3.0,96,0.00,,,0.88,Wunderground v.1.15,2013-06-27 04:56:00,